Вернуться в каталог

STARLINK-33981

АктивенСвязьVLEO
NORAD 63888·PAYLOAD·🇺🇸 United States

Запущен May 10, 2025 с Vandenberg Space Force Base

Loading…

Ближайшие Пролёты (ближайшие 24 часа)

TLE

СвежийSource: CelesTrak SupGP

Эпоха: Sep 14, 2026, 22:43 UTC

1 63888C 25094AA  26257.94701389  .00005251  00000+0  18268-3 0  2573
2 63888  69.9990 115.5899 0003471 271.3773 112.0474 15.29573715    15

Отслеживайте STARLINK-33981 в реальном времени с AllMySat

Download on the App Store